Location: Dos Palmas
(32.4468°N, 116.8732°W)
Time: 14:29:18
(UTC+00:00)

Cosmos 2061 Rocket - Pass Details

Date: 20 June 2021
Orbit: 965 x 1013 km, 82.9° (Epoch: 26 July)

Event Time Altitude Azimuth Distance (km) Brightness Sun altitude
Rises 05:48:06 0° 350° (N) 3,748 8.1 -27.1°
Reaches altitude 10° 05:50:40 10° 348° (NNW) 2,791 7.3 -27.4°
Maximum altitude 05:57:02 67° 267° (W) 1,079 4.2 -28.0°
Enters shadow 05:58:09 57° 217° (SW) 1,171 4.2 -28.2°
